Vertical_Velocity
-2 -4 -1 -1 3 5 3 9 12 -0 -17 -18 2 -9 -10 0 -11 2 -2 -8 -6 -4 -3 2 4 6 2 2 2 5 9 -2 -1 1 1 0 -1 -1
-0 0 2 2 0 -2 -1 3 11 14 1 18 -7 4 11 -2 -6 6 -3 -3 -6 1 -1 -6 3 2 4 1 2 5 9 5 1 3 1 -0 -1 -1
2 1 -2 4 -3 -0 6 6 2 11 8 -20 0 -2 0 -4 -5 -0 4 -1 -5 -0 -3 -6 -2 2 -0 2 2 3 4 3 1 -4 3 2 2 -1
-0 -2 0 -0 -4 -3 -2 -6 1 1 13 -4 7 -4 -4 5 -3 2 -2 3 2 -0 6 10 2 -3 5 9 8 -4 3 13 3 2 3 -2 -2 -3
-3 2 2 1 -4 -3 3 0 -1 -0 1 7 -21 8 0 1 -3 4 1 2 7 -7 -19 6 -0 -1 5 -2 6 13 1 -3 -4 -2 1 -1 -8 -0
2 1 -0 1 -1 -3 0 3 -1 -1 5 5 2 -7 -0 1 7 6 -5 -2 -12 3 20 15 13 -2 8 14 -10 10 3 13 4 3 0 9 -9 -1
4 5 3 2 1 6 5 -5 2 2 1 -1 -6 -1 1 -1 -1 1 -6 2 -18 -12 -22 16 5 4 -19 6 12 -3 6 6 -1 4 -6 11 -7 -4
-1 1 4 -1 5 3 3 4 9 3 3 7 -4 1 -5 1 -2 -0 6 8 3 -4 4 -8 8 7 9 9 17 0 -0 -2 5 -14 3 2 -5 0
-6 -7 -11 0 -0 -2 -0 2 2 6 5 4 1 5 -2 6 21 11 3 -1 -6 12 4 -7 4 3 4 9 -1 -4 5 5 -4 -4 -3 1 1 3
6 -3 4 0 -8 -3 -9 -7 -4 2 2 3 4 -4 1 1 7 3 4 1 1 9 -2 5 4 1 9 7 10 -1 -1 -3 1 -2 -3 5 1 -1
-7 -3 -1 -0 -0 -0 -1 -7 -9 -14 -2 2 0 -5 2 1 4 10 -5 9 -2 -2 4 -1 4 4 2 7 2 -1 2 1 1 2 4 2 -0 0
-11 -5 -3 2 0 -3 5 -3 -3 -4 -3 -10 -5 -2 0 -1 4 16 5 5 13 6 1 6 3 0 3 4 2 4 1 -2 3 4 3 4 1 -2
3 -6 -9 -4 -1 -2 4 12 5 -1 -2 -4 -2 -0 3 1 -0 2 7 2 10 0 3 4 0 4 1 1 -1 1 -5 3 1 3 4 -0 -2 -0
1 -5 -4 -3 -5 3 8 3 0 -0 -0 -2 -0 -1 -1 -2 -1 -1 3 1 1 9 7 5 0 1 -8 -3 -5 -2 2 1 4 3 0 1 -1 -2
3 4 -5 -2 3 -5 -1 -1 -1 -2 -1 -1 1 -2 1 -1 -2 3 0 -0 5 6 8 10 2 0 2 -4 -4 -2 1 -1 -1 1 1 -1 -1 2
-1 -3 -1 0 -0 -2 -6 -0 -3 2 6 4 1 -2 -1 3 4 2 2 6 5 5 8 5 0 -3 -5 4 3 -2 3 -3 -1 0 -1 -0 -1 -3
-7 -5 -4 -9 -6 -4 -0 -0 -2 -0 0 2 -1 -0 2 3 0 3 6 4 3 1 -0 -1 -6 -0 1 2 -1 0 -0 -1 0 -0 2 1 0 3
-8 -2 -5 -3 0 -3 -1 -4 1 -1 1 2 1 2 1 1 3 4 6 3 2 1 -0 -1 2 1 -0 1 1 1 1 0 0 -1 -2 -1 -2 3
-3 2 -2 -1 -1 -0 0 2 -5 -0 5 5 5 2 2 2 4 4 2 2 3 1 0 0 -1 3 2 -0 2 1 -1 -1 0 3 1 -3 0 3
-0 -1 -3 -0 -1 0 -1 -1 -5 1 2 2 1 0 2 4 3 2 3 5 1 1 0 3 1 -1 -2 -2 -3 -2 -0 3 2 2 -0 -0 -0 3
-0 -4 0 1 -1 3 0 -1 2 5 8 3 1 3 2 2 4 2 4 4 1 3 3 -2 -1 -1 -2 -2 0 3 4 -3 -2 1 1 -1 -3 -1
-2 -1 -1 2 2 0 -0 2 -2 2 1 2 0 5 2 3 3 6 2 3 2 -0 -0 3 4 -2 1 2 1 -1 -2 -4 -3 1 -0 -1 -0 2
-2 1 1 0 0 0 2 -0 2 3 4 2 1 2 2 4 2 3 1 -1 4 3 1 -3 -2 3 -0 -2 -2 0 1 1 2 0 -1 -0 2 2
Height
1395 1391 1387 1383 1380 1375 1372 1370 1364 1352 1344 1346 1344 1344 1340 1337 1335 1335 1333 1333 1333 1334 1335 1335 1337 1339 1340 1341 1342 1345 1349 1350 1352 1354 1355 1356 1358 1360
1387 1383 1378 1374 1370 1366 1363 1359 1356 1351 1336 1337 1332 1332 1330 1325 1324 1322 1320 1320 1320 1321 1322 1323 1323 1325 1328 1330 1332 1334 1336 1339 1341 1343 1345 1346 1348 1349
1381 1376 1371 1367 1362 1359 1355 1350 1344 1341 1333 1318 1324 1321 1317 1316 1313 1311 1310 1308 1307 1306 1308 1310 1310 1313 1315 1317 1319 1322 1324 1326 1330 1333 1335 1336 1338 1339
1374 1370 1364 1360 1355 1351 1346 1342 1337 1332 1327 1317 1308 1307 1307 1304 1299 1298 1297 1294 1294 1295 1296 1297 1296 1298 1301 1304 1305 1306 1311 1314 1317 1320 1323 1327 1330 1332
1369 1365 1359 1354 1349 1345 1340 1332 1328 1322 1317 1311 1299 1298 1294 1293 1288 1286 1284 1281 1280 1280 1280 1283 1284 1285 1287 1289 1293 1295 1297 1300 1307 1307 1311 1315 1320 1324
1363 1358 1354 1349 1344 1337 1333 1326 1320 1315 1309 1302 1294 1288 1286 1282 1279 1275 1271 1270 1269 1270 1270 1270 1270 1271 1274 1273 1276 1282 1284 1286 1294 1296 1303 1304 1308 1314
1356 1351 1346 1342 1338 1334 1328 1319 1314 1308 1300 1295 1289 1283 1276 1272 1270 1267 1261 1260 1255 1259 1253 1255 1257 1257 1259 1264 1260 1266 1275 1278 1283 1289 1293 1295 1298 1304
1348 1344 1338 1334 1330 1323 1318 1313 1308 1302 1295 1290 1283 1275 1269 1267 1264 1260 1255 1249 1242 1243 1242 1242 1243 1244 1245 1251 1249 1254 1260 1271 1273 1278 1287 1288 1293 1297
1343 1337 1331 1327 1322 1316 1307 1300 1295 1292 1290 1284 1275 1267 1262 1259 1256 1251 1246 1244 1234 1229 1230 1228 1231 1234 1236 1240 1243 1248 1254 1260 1265 1269 1276 1282 1286 1290
1337 1332 1325 1319 1315 1309 1300 1291 1284 1279 1275 1271 1265 1256 1253 1248 1245 1241 1237 1232 1227 1220 1219 1217 1221 1223 1225 1229 1235 1242 1247 1252 1256 1262 1270 1275 1278 1283
1330 1324 1319 1313 1308 1304 1296 1287 1278 1268 1264 1259 1252 1246 1240 1236 1233 1229 1223 1219 1214 1210 1208 1210 1212 1214 1216 1220 1228 1235 1241 1246 1253 1259 1264 1268 1272 1276
1324 1318 1313 1307 1301 1296 1290 1282 1272 1264 1255 1245 1239 1233 1229 1223 1220 1216 1211 1207 1203 1200 1198 1201 1203 1207 1212 1215 1222 1229 1235 1244 1251 1255 1258 1262 1266 1270
1319 1312 1305 1299 1291 1286 1281 1275 1268 1259 1248 1240 1230 1222 1218 1212 1207 1203 1199 1195 1193 1190 1189 1190 1195 1199 1201 1208 1217 1224 1232 1240 1243 1247 1251 1255 1260 1263
1313 1305 1298 1291 1283 1277 1272 1267 1260 1251 1241 1231 1222 1214 1208 1202 1197 1193 1190 1187 1185 1185 1185 1185 1188 1191 1196 1204 1213 1221 1228 1234 1238 1242 1245 1249 1252 1256
1308 1300 1293 1284 1277 1270 1264 1258 1251 1243 1234 1225 1217 1209 1204 1198 1192 1188 1185 1182 1181 1180 1180 1182 1187 1193 1198 1204 1211 1216 1222 1228 1234 1238 1239 1242 1246 1249
1300 1292 1285 1279 1272 1266 1257 1251 1244 1237 1229 1221 1212 1205 1199 1194 1190 1187 1184 1181 1180 1179 1181 1185 1189 1194 1201 1207 1211 1215 1220 1224 1229 1232 1235 1237 1239 1242
1295 1287 1279 1272 1264 1257 1250 1245 1238 1230 1222 1215 1208 1201 1196 1191 1188 1186 1184 1183 1182 1182 1185 1188 1192 1198 1203 1208 1212 1215 1218 1221 1224 1227 1230 1232 1235 1237
1291 1284 1276 1269 1261 1254 1246 1239 1233 1225 1218 1210 1203 1197 1192 1189 1187 1186 1185 1186 1185 1186 1188 1192 1195 1200 1204 1208 1210 1212 1215 1218 1221 1224 1225 1226 1229 1233
1288 1281 1274 1266 1258 1251 1244 1237 1227 1221 1214 1206 1199 1193 1189 1187 1185 1185 1186 1187 1188 1189 1191 1195 1198 1201 1203 1205 1209 1211 1214 1217 1218 1219 1220 1221 1222 1225
1285 1278 1270 1263 1256 1249 1242 1233 1224 1217 1209 1202 1196 1191 1187 1185 1184 1185 1186 1188 1190 1192 1194 1197 1199 1201 1203 1206 1208 1210 1211 1212 1212 1213 1215 1216 1217 1217
1280 1274 1267 1259 1253 1247 1238 1229 1221 1214 1206 1199 1194 1189 1186 1185 1185 1186 1188 1190 1193 1195 1196 1198 1201 1202 1204 1205 1206 1207 1207 1207 1207 1207 1208 1209 1211 1211
1278 1270 1263 1256 1250 1243 1233 1225 1217 1210 1203 1198 1193 1189 1186 1186 1187 1189 1191 1194 1195 1197 1199 1200 1201 1202 1203 1202 1203 1204 1204 1204 1204 1203 1203 1204 1206 1208
1274 1266 1259 1252 1246 1238 1229 1222 1214 1209 1203 1198 1194 1191 1190 1191 1193 1194 1195 1197 1199 1199 1200 1201 1202 1202 1202 1202 1202 1202 1201 1201 1200 1200 1201 1201 1202 1205